Regional Weather Roundup
Issued by NWS

Home | Current Version | Previous Version | Graphics & Text | Print | Product List | Glossary On
Versions: 1 2 3 4 5 6 7 8 9 10 11 12 13 14 15 16 17 18 19 20 21 22 23 24 25 26 27 28 29 30 31 32 33 34 35 36 37 38 39 40 41 42 43 44 45 46 47 48 49 50
800
ASUS45 KTFX 051610
RWRMT
MONTANA REGIONAL WEATHER ROUNDUP
NATIONAL WEATHER SERVICE GREAT FALLS MT
1000 AM MDT THU MAY 05 2016

NOTE: "FAIR" INDICATES FEW OR NO CLOUDS BELOW 12000 FEET WITH NO
SIGNIFICANT WEATHER AND/OR OBSTRUCTIONS TO VISIBILITY.

MTZ001>007-043-051700-
WEST OF THE DIVIDE

CITY           SKY/WX    TMP DP  RH WIND       PRES   REMARKS
KALISPELL      PTSUNNY   62  45  53 CALM      29.92S
MISSOULA       PTSUNNY   60  43  53 E5        29.95F
BUTTE          CLOUDY    59  34  39 E3        30.03R
MULLAN PASS    PTSUNNY   49  41  74 CALM      30.01F
ANACONDA         N/A     59  37  44 NE8       30.01R
DEER LODGE       N/A     57  37  47 NE10      30.01F
EUREKA           N/A     63  46  55 CALM      29.95S
HAMILTON         N/A     61  39  44 E6        29.96R
LIBBY            N/A     61  48  63 NW3       29.94F
PLAINS           N/A     62  50  65 CALM      29.94S
THOMPSON FALLS   N/A     59  53  80 CALM      29.99S
$$

MTZ008-052>055-051700-
SOUTHWEST MONTANA

CITY           SKY/WX    TMP DP  RH WIND       PRES   REMARKS
BOZEMAN        CLOUDY    65  44  46 CALM      29.98S
DILLON         CLOUDY    57  35  43 SW5       30.01S
ENNIS          SUNNY     63  36  36 SE6       30.07S
THREE FORKS      N/A     66  19  16 CALM      29.97S
TWIN BRIDGES     N/A     61  34  36 SE6       29.99S
$$

MTZ009-010-012-014-046-048-049-054-051700-
EAST SLOPES AND CENTRAL MONTANA

CITY           SKY/WX    TMP DP  RH WIND       PRES   REMARKS
CUT BANK       MOSUNNY   68  42  38 N6        29.92S
GREAT FALLS    CLOUDY    64  42  44 W7        29.91S
MALMSTROM AFB  SUNNY     63  41  44 W5        29.91S
HELENA         MOSUNNY   63  37  38 CALM      29.95F
CHOTEAU          N/A     68  36  30 CALM      29.92S
CONRAD           N/A     68  51  54 NW6       29.95R
$$

MTZ011-013-016-021-045-047-050-051-051700-
NORTH CENTRAL MONTANA

CITY           SKY/WX    TMP DP  RH WIND       PRES   REMARKS
HAVRE          MOSUNNY   63  45  51 SW12      29.87F
LEWISTOWN      CLOUDY    69  38  32 E5        29.92F
N BAR RANCH      N/A     72  39  30 CALM      29.96S
$$

MTZ017>020-022>027-061-062-051700-
NORTHEAST MONTANA

CITY           SKY/WX    TMP DP  RH WIND       PRES   REMARKS
GLASGOW        SUNNY     71  46  40 W6        29.81F
JORDAN           N/A     74  48  39 W10       29.85R
SIDNEY         SUNNY     72  46  40 S10       29.85F
WOLF POINT     SUNNY     74  49  41 SW5       29.82F
POPLAR           N/A     75  46  35 S6        29.82F
$$

MTZ028>42-056>058-051700-
SOUTHCENTRAL AND SOUTHEAST MONTANA

CITY           SKY/WX    TMP DP  RH WIND       PRES   REMARKS
BAKER          SUNNY     76  49  38 S8        29.91F
BILLINGS       CLOUDY    64  42  44 SW9       29.93S
LIVINGSTON     CLOUDY    70  35  27 SW8       29.97F
MILES CITY     SUNNY     70  47  43 SE5       29.87F
FORSYTH          N/A     72  45  37 CALM      29.87F
LAUREL           N/A     64  42  44 S3        29.93S
ROUNDUP          N/A     64  42  44 S6        29.84S
$$

REGIONAL REPORTS...DAKOTAS

CITY           SKY/WX    TMP DP  RH WIND       PRES   REMARKS
WILLISTON      SUNNY     73  47  39 S7        29.84F
MINOT          SUNNY     82  43  25 SW16      29.83S
DICKINSON      SUNNY     74  46  36 SW8       29.88F
BEACH            N/A     77  46  33 S10       29.91F
CROSBY           N/A     77  46  33 S12       29.83F
TIOGA            N/A     75  45  33 SW8       29.90S
WATFORD CITY     N/A     77  46  33 SW5       29.86F
BISMARCK       SUNNY     77  42  28 SW14G25   29.90F
GRAND FORKS    MOSUNNY   83  43  24 W21       29.81F
FARGO          SUNNY     74  42  31 S13       29.89F
BUFFALO SD       N/A     71  48  43 VRB3      29.87F
RAPID CITY     SUNNY     69  51  52 SE6       29.95F
$$

REGIONAL REPORTS...WYOMING/IDAHO/WASHINGTON

CITY           SKY/WX    TMP DP  RH WIND       PRES   REMARKS
GILLETTE       SUNNY     70  45  40 SE7       29.97F
SHERIDAN       MOSUNNY   67  44  43 CALM      29.95S
BUFFALO WY     CLOUDY    69  42  37 S3        30.00S
CODY           CLOUDY    66  36  32 SW9       30.02S
YELLOWSTONE LA   N/A     44  29  55 CALM      30.20F
IDAHO FALLS    CLOUDY    64  43  46 N7        29.98F
SALMON         CLOUDY    55  37  50 NW7       29.96F
BOISE          CLOUDY    59  46  62 CALM      29.87S
SPOKANE        PTSUNNY   56  50  80 SE3       29.95R
$$

REGIONAL REPORTS...ALBERTA

CITY           SKY/WX    TMP DP  RH WIND       PRES   REMARKS
EDMONTON       MOSUNNY   52  32  46 NW15      30.01R
CALGARY        LGT RAIN  46  36  66 N20G26    30.01R
LETHBRIDGE     PTSUNNY   63  39  42 N10G18    29.93S
MEDICINE HAT   MOSUNNY   64  45  48 W15       29.87R
WATERTON GATE    N/A     55  41  58 NE6         N/A
CARDSTON         N/A     54  39  58 N8          N/A
MILK RIVER       N/A     63  45  51 N17G23      N/A
ONEFOUR          N/A     70  43  37 NW8         N/A
$$

REGIONAL REPORTS...SASKATCHEWAN

CITY           SKY/WX    TMP DP  RH WIND       PRES   REMARKS
SWIFT CURRENT  MOSUNNY   75  39  27 W15G24    29.79S
REGINA         PTSUNNY   81  41  24 S7        29.75F
SASKATOON      MOSUNNY   75  39  27 E9        29.72F
CYPRESS HILLS    N/A     70  32  24 NW9         N/A
VAL MARIE        N/A     72  43  35 N3          N/A
ROCKGLEN         N/A     73  43  33 W6          N/A
$$




USA.gov is the U.S. government's official web portal to all federal, state and local government web resources and services.